Regional Weather Roundup
Issued by NWS Sioux Falls, SD

Home | Current Version | Previous Version | Graphics & Text | Print | Product List | Glossary On
Versions: 1 2 3 4 5 6 7 8 9 10 11 12 13 14 15 16 17 18 19 20 21 22 23 24 25 26 27 28 29 30 31 32 33 34 35 36 37 38 39 40 41 42 43 44 45 46 47 48 49 50
000
ASUS43 KFSD 240102
RWRFSD

WEATHER ROUNDUP FOR SE SOUTH DAKOTA/SW MINNESOTA/NW IOWA
NATIONAL WEATHER SERVICE SIOUX FALLS SD
800 PM CDT WED APR 23 2014

NOTE: "FAIR" INDICATES FEW OR NO CLOUDS BELOW 12,000 FEET WITH NO
SIGNIFICANT WEATHER AND OR OBSTRUCTIONS TO VISIBILITY.


SDZ038>040-050-052>070-240200-
SOUTHEAST SOUTH DAKOTA

CITY           SKY/WX    TMP DP  RH WIND       PRES   REMARKS
CHAMBERLAIN      N/A     70  46  42 N7        29.53R
HURON          MOCLDY    63  42  46 SE16G28   29.56R
MADISON        CLOUDY    54  39  58 SE26G32   29.65R
MITCHELL       CLOUDY    63  44  50 SE22G31   29.57R
SIOUX FALLS    MOCLDY    54  40  59 SE18      29.66R
WINNER         FAIR      63  43  48 NW30G40   29.58R
YANKTON        MOCLDY    61  43  51 E22G29    29.61R
$$

MNZ071-072-080-081-089-090-097-098-240200-
SOUTHWEST MINNESOTA

CITY           SKY/WX    TMP DP  RH WIND       PRES   REMARKS
FAIRMONT       CLOUDY    45  36  70 SE22G29   29.83S
JACKSON        CLOUDY    45  36  70 SE18G26   29.80S
LUVERNE        MOCLDY    52  37  58 SE24      29.71S
MARSHALL       MOCLDY    46  36  66 SE23G30   29.76S
MONTEVIDEO     CLOUDY    43  37  81 SE17G23   29.80S
PIPESTONE      CLOUDY    48  37  66 SE21G29   29.71R
REDWOOD FALLS  CLOUDY    44  37  76 SE16G26   29.82F
TRACY          CLOUDY    46  38  72 SE20G25   29.78R
WINDOM         CLOUDY    45  37  76 SE20G26   29.80S
WORTHINGTON    PTCLDY    46  34  61 SE24G30   29.76S
$$

IAZ001>003-012>014-020>022-031-032-NEZ013-014-SDZ071-240200-
NORTHWEST IOWA

CITY           SKY/WX    TMP DP  RH WIND       PRES   REMARKS
CHEROKEE       MOCLDY    49  40  70 SE16G24   29.73F
DENISON        CLOUDY    52  43  71 SE17      29.68F
ESTHERVILLE    CLOUDY    44  38  79 SE29G36   29.79F
SHELDON        CLOUDY    48  39  71 SE24G32   29.71S
SIOUX CITY     TSTM      54  46  74 SE17G28   29.65S
SPENCER        MOCLDY    47  38  71 SE24G37   29.76F
STORM LAKE     MOCLDY    48  39  71 SE25G31   29.73F
$$

ABBREVIATIONS USED IN REMARKS
   TC - TEMPERATURE IN CELSIUS
  WCI - WIND CHILL INDEX
   HX - HEAT INDEX
  VSB - VISIBILITY




USA.gov is the U.S. government's official web portal to all federal, state and local government web resources and services.